Location: Eexterzandvoort
(53.0303°N, 6.7884°E)
Time: 20:28:46
(UTC+00:00)

Cosmos 1697 Rocket - Pass Details

Date: 19 May 2025
Orbit: 830 x 844 km, 71.0° (Epoch: 20 June)

Event Time Altitude Azimuth Distance (km) Brightness Sun altitude
Rises 21:16:36 0° 325° (NW) 3,407 8.0 -11.5°
Reaches altitude 10° 21:19:10 10° 318° (NW) 2,470 6.6 -11.7°
Maximum altitude 21:24:25 41° 251° (WSW) 1,217 3.6 -12.1°
Enters shadow 21:29:19 12° 184° (S) 2,342 4.5 -12.5°
